ATLAS 5 CENTAUR DEB, 44845

Orbit data source: Space-Track

ATLAS 5 CENTAUR DEB, 44845 is space debris in HEO originally from a launch on Wed, 17 Sep 2014 UTC launched from the Air Force Eastern Test Range (AFETR). Debris objects in space refer to the collection of defunct objects orbiting the Earth. Examples of debris include non-operational satellites, rocket bodies, and fragments generated from explosions, collisions, or faulty payload assembly.

Loading next visibility...
Identifier
44845, 2014-055CD
Orbit
HEO
Last TLE update
3 days ago
Origin
Manufacturer
Unknown
Mission
Spacecraft
Bus & Motor
Unknown
Mass
Unknown
Launch date (UTC)
2014-09-17 (11 years ago)
Launch vehicle
Unknown
Launch site
Air Force Eastern Test Range (AFETR)
Object type
Payload
Rocket body
Debris
Shape & HBR
Unknown
Radar Cross Section
Small (<0.1 m²)

Expand to show TLE details & history

TLE from 3 days ago
0 ATLAS 5 CENTAUR DEB
1 44845U 14055CD  25125.95625774  .00000000  00000-0  00000-0 0  9990
2 44845  19.6968 168.9794 5107709 119.5002 300.6887  1.84919175 36890
Epoch: 2025-05-05T22:57Z
Definitive object data (Epoch: 2025-05-05T22:57:00.668Z)
Latitude
-0.00003°
Longitude
-39.25024°
Altitude
21,275.655 km
Speed
3.823 km/s
True Right ascension
11h 16m 15s
True Declination
0° 00' 00"
Sunlit
Object was in daylight at TLE epoch
Visualization TLE readout
Latitude
8.21795°
Longitude
-15.82047°
Altitude
15,300.602 km
Speed
4.75 km/s
Apparent Right ascension
12h 33m 58s
Apparent Declination
-3° 20' 39"
Sunlit
Object is in daylight
Visualization observer readout
Local Sidereal Time
13:45:10
Azimuth
204.995° SW
Elevation
43.756°
Doppler factor
1
Orbital elements
Apogee altitude
35,983.999 km
Perigee altitude
7,339.886 km
Semi-major axis
28,040.08 km
Eccentricity
0.5107709
Inclination
19.6968°
RAAN
168.9794°
Arg. of periapsis
119.5002°
True anomaly
240.52457°
Mean anomaly
300.6887°
Eccentric anomaly
271.43283°
Mean motion
0.46225 °/min
BSTAR
Unknown
Orbital period
778.8 mins
Loading maneuver chart data...
Loading SW <> Apogee altitude chart data...

ATLAS 5 CENTAUR DEB Visibility forecast

Observer location: undefined°, undefined°

Span
Click to sort rows by Start time (UTC) header in descending order
Start Az.
Max El. time (UTC)
Max El. Az.
Max El.
End time (UTC)
End Az.
75 mins2025-05-09 05:36:28.551Z204.974° SW2025-05-09 06:09:28.551Z168.258° S38.317°2025-05-09 06:51:28.551Z97.835° ESE
|